Location: Barcelona
(41.3830°N, 2.1830°E)
Time: 04:16:45
(UTC+01:00)

ISS - Pass Details

Date: 12 November 2019
Orbit: 412 x 421 km, 51.6° (Epoch: 12 November)

Event Time Altitude Azimuth Distance (km) Brightness Sun altitude
Exits shadow 06:34:31 18° 267° (W) 1,099 -2.2 -11.7°
Maximum altitude 06:36:06 26° 225° (SW) 864 -2.5 -11.4°
Drops below altitude 10° 06:38:57 10° 167° (SSE) 1,490 -0.6 -10.9°
Sets 06:41:14 0° 154° (SSE) 2,348 0.7 -10.5°
